TimeEST,TemperatureF,Dew PointF,Humidity,Sea Level PressureIn,VisibilityMPH,Wind Direction,Wind SpeedMPH,Gust SpeedMPH,PrecipitationIn,Events,Conditions,WindDirDegrees,DateUTC
12:53 AM,61.0,54.0,78,30.11,10.0,West,4.6,-,N/A,,Clear,260,2013-03-06 05:53:00
1:53 AM,60.1,54.0,80,30.09,10.0,West,5.8,-,N/A,,Clear,260,2013-03-06 06:53:00
2:53 AM,59.0,53.1,81,30.06,10.0,Calm,Calm,-,N/A,,Clear,0,2013-03-06 07:53:00
3:53 AM,57.9,53.1,84,30.04,10.0,SW,3.5,-,N/A,,Clear,230,2013-03-06 08:53:00
4:53 AM,57.0,53.1,87,30.05,10.0,SW,3.5,-,N/A,,Clear,230,2013-03-06 09:53:00
5:53 AM,59.0,54.0,83,30.07,10.0,West,5.8,-,N/A,,Clear,260,2013-03-06 10:53:00
6:53 AM,59.0,55.0,87,30.09,10.0,WSW,5.8,-,N/A,,Clear,240,2013-03-06 11:53:00
7:53 AM,64.9,57.9,78,30.09,10.0,WSW,9.2,-,N/A,,Clear,240,2013-03-06 12:53:00
8:53 AM,70.0,59.0,68,30.09,10.0,WSW,17.3,20.7,N/A,,Clear,240,2013-03-06 13:53:00
9:53 AM,73.0,57.0,57,30.09,10.0,WSW,13.8,-,N/A,,Clear,240,2013-03-06 14:53:00
10:53 AM,77.0,57.9,52,30.09,10.0,West,16.1,24.2,N/A,,Scattered Clouds,260,2013-03-06 15:53:00
11:53 AM,79.0,59.0,50,30.07,10.0,West,19.6,24.2,N/A,,Scattered Clouds,270,2013-03-06 16:53:00
12:53 PM,75.9,59.0,56,30.05,10.0,West,18.4,29.9,N/A,,Overcast,280,2013-03-06 17:53:00
1:53 PM,78.1,62.1,58,30.03,10.0,NW,18.4,-,0.00,,Mostly Cloudy,310,2013-03-06 18:53:00
2:53 PM,78.1,59.0,52,30.00,10.0,West,15.0,25.3,N/A,,Partly Cloudy,280,2013-03-06 19:53:00
3:53 PM,79.0,55.0,44,29.99,10.0,WNW,20.7,25.3,N/A,,Clear,300,2013-03-06 20:53:00
4:53 PM,79.0,55.0,44,29.98,10.0,WNW,13.8,-,N/A,,Clear,290,2013-03-06 21:53:00
5:53 PM,75.0,46.0,36,30.00,10.0,WNW,18.4,-,N/A,,Clear,290,2013-03-06 22:53:00
6:53 PM,69.1,36.0,30,30.03,10.0,WNW,17.3,-,N/A,,Clear,290,2013-03-06 23:53:00
7:53 PM,64.9,37.9,37,30.06,10.0,WNW,15.0,23.0,N/A,,Clear,300,2013-03-07 00:53:00
8:53 PM,61.0,39.0,44,30.09,10.0,WNW,16.1,21.9,N/A,,Clear,290,2013-03-07 01:53:00
9:53 PM,57.9,41.0,53,30.10,10.0,WNW,16.1,-,N/A,,Clear,290,2013-03-07 02:53:00
10:53 PM,55.9,42.1,60,30.12,10.0,NW,12.7,20.7,N/A,,Clear,310,2013-03-07 03:53:00
11:53 PM,54.0,41.0,62,30.12,10.0,NW,16.1,24.2,N/A,,Clear,310,2013-03-07 04:53:00